Location: Coed Ely
(51.5661°N, 3.4150°W)
Time: 01:38:48
(UTC+00:00)

Aureole 2 Rocket - Pass Details

Date: 28 January 2021
Orbit: 285 x 373 km, 73.9° (Epoch: 28 February)

Event Time Altitude Azimuth Distance (km) Brightness Sun altitude
Rises 18:06:58 0° 236° (WSW) 2,258 7.5 -11.0°
Reaches altitude 10° 18:09:16 10° 253° (WSW) 1,419 6.5 -11.4°
Maximum altitude 18:11:44 21° 306° (NW) 938 4.5 -11.7°
Drops below altitude 10° 18:14:15 10° 359° (N) 1,439 4.8 -12.1°
Enters shadow 18:15:56 - 12° (NNE) 2,040 5.5 -12.4°
